Back to catalog

DEB CSSHQ

AliveVLEO
NORAD 62721·DEBRIS·🇨🇳 China
This satellite name has not been confirmed by official sources yet.

Launched Dec 14, 2023 from Jiuquan Satellite Launch Center

Loading…

Next Passes (next 24 hours)

TLE

StaleSource: Space-Track

Epoch: Sep 7, 2026, 13:46 UTC

1 62721U 23195H   26250.57425272  .00007623  00000-0  49917-3 0  9998
2 62721  49.9836 195.1373 0001432  21.2995 338.8013 15.08560522112033

Track DEB CSSHQ in real time with AllMySat

Download on the App Store